TimeMST,TemperatureF,Dew PointF,Humidity,Sea Level PressureIn,VisibilityMPH,Wind Direction,Wind SpeedMPH,Gust SpeedMPH,PrecipitationIn,Events,Conditions,WindDirDegrees,DateUTC
12:15 AM,33.8,28.4,81,30.36,10.0,SE,9.2,-,N/A,,Clear,140,2013-11-27 07:15:00
12:35 AM,33.8,26.6,75,30.36,10.0,North,-9999.0,-,N/A,,Clear,0,2013-11-27 07:35:00
12:55 AM,33.8,26.6,75,30.35,10.0,North,-9999.0,-,N/A,,Clear,0,2013-11-27 07:55:00
1:15 AM,33.8,26.6,75,30.35,10.0,North,-9999.0,-,N/A,,Clear,0,2013-11-27 08:15:00
1:55 AM,33.8,26.6,75,30.33,10.0,North,-9999.0,-,N/A,,Clear,0,2013-11-27 08:55:00
3:15 AM,35.6,24.8,65,30.32,10.0,North,-9999.0,-,N/A,,Clear,0,2013-11-27 10:15:00
3:35 AM,35.6,24.8,65,30.32,10.0,North,-9999.0,-,N/A,,Clear,0,2013-11-27 10:35:00
3:55 AM,37.4,23.0,56,30.31,10.0,North,-9999.0,-,N/A,,Clear,0,2013-11-27 10:55:00
4:15 AM,37.4,23.0,56,30.31,10.0,East,17.3,21.9,N/A,,Clear,100,2013-11-27 11:15:00
4:35 AM,35.6,23.0,60,30.31,10.0,North,-9999.0,-,N/A,,Clear,0,2013-11-27 11:35:00
4:55 AM,37.4,23.0,56,30.31,10.0,North,-9999.0,-,N/A,,Clear,0,2013-11-27 11:55:00
5:15 AM,37.4,23.0,56,30.31,10.0,East,16.1,-,N/A,,Clear,100,2013-11-27 12:15:00
5:35 AM,37.4,23.0,56,30.32,10.0,North,-9999.0,-,N/A,,Clear,0,2013-11-27 12:35:00
5:55 AM,35.6,23.0,60,30.31,10.0,North,-9999.0,-,N/A,,Clear,0,2013-11-27 12:55:00
6:35 AM,33.8,24.8,70,30.31,10.0,North,-9999.0,-,N/A,,Clear,0,2013-11-27 13:35:00
6:55 AM,35.6,23.0,60,30.31,10.0,North,-9999.0,-,N/A,,Clear,0,2013-11-27 13:55:00
7:15 AM,37.4,23.0,56,30.32,10.0,North,-9999.0,-,N/A,,Clear,0,2013-11-27 14:15:00
7:35 AM,37.4,23.0,56,30.32,10.0,North,-9999.0,-,N/A,,Clear,0,2013-11-27 14:35:00
7:55 AM,37.4,23.0,56,30.32,10.0,North,-9999.0,-,N/A,,Clear,0,2013-11-27 14:55:00
8:15 AM,37.4,24.8,60,30.33,10.0,North,-9999.0,-,N/A,,Clear,0,2013-11-27 15:15:00
8:35 AM,37.4,24.8,60,30.33,10.0,North,-9999.0,-,N/A,,Clear,0,2013-11-27 15:35:00
8:55 AM,39.2,23.0,52,30.33,10.0,North,-9999.0,-,N/A,,Clear,0,2013-11-27 15:55:00
9:15 AM,41.0,23.0,49,30.32,10.0,North,-9999.0,-,N/A,,Clear,0,2013-11-27 16:15:00
9:35 AM,42.8,23.0,46,30.32,10.0,East,21.9,28.8,N/A,,Clear,100,2013-11-27 16:35:00
9:55 AM,42.8,23.0,46,30.32,10.0,East,24.2,28.8,N/A,,Clear,100,2013-11-27 16:55:00
10:35 AM,42.8,21.2,42,30.30,10.0,ESE,24.2,32.2,N/A,,Clear,110,2013-11-27 17:35:00
10:55 AM,44.6,21.2,39,30.29,10.0,East,24.2,35.7,N/A,,Clear,100,2013-11-27 17:55:00
11:15 AM,44.6,23.0,43,30.28,10.0,East,26.5,33.4,N/A,,Clear,100,2013-11-27 18:15:00
11:35 AM,44.6,21.2,39,30.26,10.0,ESE,25.3,32.2,N/A,,Clear,110,2013-11-27 18:35:00
11:55 AM,44.6,23.0,43,30.25,10.0,ESE,24.2,31.1,N/A,,Clear,110,2013-11-27 18:55:00
12:15 PM,44.6,23.0,43,30.25,10.0,ESE,23.0,32.2,N/A,,Clear,110,2013-11-27 19:15:00
12:35 PM,44.6,23.0,43,30.24,10.0,ESE,21.9,29.9,N/A,,Clear,110,2013-11-27 19:35:00
12:55 PM,44.6,23.0,43,30.23,10.0,ESE,20.7,29.9,N/A,,Clear,110,2013-11-27 19:55:00
1:15 PM,44.6,23.0,43,30.21,10.0,ESE,23.0,28.8,N/A,,Clear,110,2013-11-27 20:15:00
1:35 PM,44.6,23.0,43,30.21,10.0,ESE,20.7,27.6,N/A,,Clear,110,2013-11-27 20:35:00
1:55 PM,44.6,23.0,43,30.19,10.0,ESE,19.6,27.6,N/A,,Clear,110,2013-11-27 20:55:00
2:15 PM,44.6,23.0,43,30.19,10.0,ESE,19.6,25.3,N/A,,Clear,110,2013-11-27 21:15:00
2:35 PM,44.6,23.0,43,30.18,10.0,East,20.7,28.8,N/A,,Clear,100,2013-11-27 21:35:00
2:55 PM,46.4,23.0,40,30.17,10.0,ESE,20.7,29.9,N/A,,Clear,110,2013-11-27 21:55:00
3:15 PM,44.6,23.0,43,30.17,10.0,East,24.2,29.9,N/A,,Clear,100,2013-11-27 22:15:00
3:35 PM,46.4,23.0,40,30.17,10.0,ESE,21.9,27.6,N/A,,Clear,120,2013-11-27 22:35:00
3:55 PM,44.6,23.0,43,30.17,10.0,ESE,18.4,26.5,N/A,,Clear,120,2013-11-27 22:55:00
4:15 PM,44.6,23.0,43,30.18,10.0,ESE,15.0,25.3,N/A,,Clear,110,2013-11-27 23:15:00
4:35 PM,44.6,23.0,43,30.18,10.0,East,13.8,24.2,N/A,,Clear,100,2013-11-27 23:35:00
4:55 PM,44.6,23.0,43,30.18,10.0,East,17.3,23.0,N/A,,Clear,100,2013-11-27 23:55:00
5:15 PM,42.8,23.0,46,30.18,10.0,East,13.8,21.9,N/A,,Clear,100,2013-11-28 00:15:00
5:35 PM,42.8,23.0,46,30.18,10.0,East,15.0,19.6,N/A,,Clear,90,2013-11-28 00:35:00
5:55 PM,41.0,23.0,49,30.18,10.0,East,16.1,23.0,N/A,,Clear,100,2013-11-28 00:55:00
6:15 PM,41.0,23.0,49,30.18,10.0,East,12.7,-,N/A,,Clear,100,2013-11-28 01:15:00
6:35 PM,41.0,23.0,49,30.19,10.0,East,11.5,-,N/A,,Clear,100,2013-11-28 01:35:00
6:55 PM,39.2,23.0,52,30.19,10.0,East,10.4,-,N/A,,Clear,100,2013-11-28 01:55:00
7:15 PM,39.2,24.8,56,30.19,10.0,ESE,9.2,-,N/A,,Clear,120,2013-11-28 02:15:00
7:35 PM,39.2,24.8,56,30.19,10.0,ESE,11.5,-,N/A,,Clear,110,2013-11-28 02:35:00
7:55 PM,39.2,24.8,56,30.19,10.0,East,13.8,17.3,N/A,,Clear,100,2013-11-28 02:55:00
8:15 PM,39.2,23.0,52,30.20,10.0,East,10.4,-,N/A,,Clear,100,2013-11-28 03:15:00
8:35 PM,39.2,23.0,52,30.19,10.0,East,11.5,17.3,N/A,,Clear,100,2013-11-28 03:35:00
8:55 PM,37.4,23.0,56,30.19,10.0,ESE,9.2,-,N/A,,Clear,110,2013-11-28 03:55:00
9:15 PM,37.4,23.0,56,30.19,10.0,ESE,8.1,-,N/A,,Clear,120,2013-11-28 04:15:00
9:35 PM,37.4,23.0,56,30.19,10.0,SSE,6.9,-,N/A,,Clear,150,2013-11-28 04:35:00
9:55 PM,33.8,24.8,70,30.19,10.0,SSE,6.9,-,N/A,,Clear,160,2013-11-28 04:55:00
10:15 PM,35.6,23.0,60,30.19,10.0,SE,6.9,-,N/A,,Clear,130,2013-11-28 05:15:00
10:35 PM,33.8,24.8,70,30.20,10.0,North,-9999.0,-,N/A,,Clear,0,2013-11-28 05:35:00
10:55 PM,33.8,24.8,70,30.20,10.0,SSE,6.9,-,N/A,,Clear,150,2013-11-28 05:55:00
11:15 PM,33.8,24.8,70,30.20,10.0,North,-9999.0,-,N/A,,Clear,0,2013-11-28 06:15:00
11:35 PM,33.8,24.8,70,30.20,10.0,SSE,6.9,-,N/A,,Clear,150,2013-11-28 06:35:00
11:55 PM,32.0,24.8,75,30.19,10.0,SSE,8.1,-,N/A,,Clear,160,2013-11-28 06:55:00